GFSGL_prec_kuchsnow_318.txt.gz
Snowfall_Accumulation
5.0 4.7 3.7 2.1 2.4 1.1 3.4 0.4 0.2 0.0 0.0 0.0 0.0 0.0 0.0 0.0 0.0 0.0 0.0 0.0 0.0 0.0 0.0 0.0 0.0 0.0 0.0 0.0 0.0 0.0 0.2 1.0 1.2 0.0 0.0 0.2 0.2 0.3 0.1 0.0 0.0 0.0 0.0
3.9 5.8 5.3 3.7 2.7 3.1 1.7 3.0 0.5 0.3 0.0 0.0 0.0 0.0 0.0 0.0 0.0 0.0 0.0 0.0 0.0 0.0 0.0 0.0 0.0 0.0 0.0 0.0 0.2 0.2 0.2 0.0 1.9 0.3 0.1 0.9 1.6 1.0 0.4 0.1 0.0 0.0 0.0
0.4 3.0 5.7 5.4 4.3 3.9 3.3 1.8 4.2 3.4 0.5 0.5 0.0 0.1 0.1 0.0 0.0 0.0 0.0 0.0 0.0 0.0 0.0 0.0 0.0 0.0 0.0 0.0 0.7 0.5 1.1 0.5 1.1 1.3 0.6 0.9 0.5 0.2 0.1 0.1 0.0 0.0 0.0
0.1 0.2 1.7 5.3 5.5 4.0 3.3 2.9 3.0 5.5 2.0 1.4 0.2 0.2 0.1 0.0 0.0 0.0 0.0 0.0 0.0 0.0 0.0 0.0 0.0 0.0 0.9 0.9 1.3 0.9 0.4 0.8 0.9 0.6 0.4 0.9 0.8 0.2 0.2 0.2 0.1 0.0 0.0
0.0 0.0 0.2 0.4 2.8 4.2 3.3 3.2 2.8 2.6 6.0 3.8 2.5 1.1 0.1 0.3 0.2 0.3 0.4 0.3 0.1 0.1 1.0 0.7 1.6 1.7 1.1 1.3 1.3 0.8 0.4 0.5 1.5 3.5 2.2 1.4 0.5 0.2 0.3 0.0 0.2 0.0 0.2
0.0 0.0 0.0 0.0 0.3 1.7 2.7 3.5 2.8 3.0 2.6 5.6 4.2 4.3 3.5 1.0 0.3 0.7 0.9 3.0 3.3 3.8 3.1 1.4 1.5 0.9 0.6 0.4 0.6 0.7 2.0 5.0 5.7 4.9 4.3 1.1 0.1 0.1 0.0 0.1 2.0 2.3 2.6
0.0 0.0 0.0 0.0 0.1 0.1 0.8 2.0 3.7 4.5 3.5 3.2 5.3 4.7 4.7 1.4 0.4 0.7 1.4 2.3 5.5 4.2 3.1 2.1 1.0 0.2 0.4 0.4 0.2 0.2 0.8 0.7 1.5 3.9 4.2 1.3 1.2 0.5 2.5 4.0 1.2 2.2 2.8
0.0 0.0 0.0 0.4 0.3 0.0 0.3 0.9 2.1 4.0 6.1 4.4 3.7 4.7 8.5 3.6 0.6 1.0 2.2 3.7 4.2 2.2 1.6 0.3 0.6 0.3 0.0 0.3 0.5 1.5 0.6 0.1 0.0 0.0 0.1 0.5 0.7 0.6 0.3 1.4 1.6 1.6 0.6
0.1 0.3 0.3 0.9 1.7 1.4 2.0 2.5 3.9 3.4 4.9 6.6 5.4 5.6 8.6 6.1 1.5 1.3 1.5 2.3 1.5 0.7 0.3 0.1 0.1 0.3 0.1 0.3 2.3 3.5 1.2 0.1 0.0 0.0 0.2 0.1 0.0 0.0 0.1 2.4 5.6 6.4 3.7
0.8 0.7 0.7 1.1 2.6 3.0 2.0 3.5 4.1 4.5 6.7 6.1 6.9 5.0 4.9 5.4 2.3 1.2 1.8 3.8 3.1 0.9 0.2 0.1 0.0 0.4 0.4 0.6 1.9 3.3 3.2 0.4 0.6 0.5 0.0 0.0 0.0 0.1 0.1 0.7 4.4 14.5 7.9
1.1 0.9 1.3 1.2 2.6 2.7 3.4 4.2 4.2 3.3 4.8 6.3 5.5 4.2 4.7 4.3 3.3 1.4 1.5 3.9 4.2 2.9 1.5 0.8 0.3 0.4 0.7 0.6 0.7 3.2 3.2 0.3 1.6 1.8 0.6 0.0 0.0 0.1 0.1 0.1 0.7 7.1 14.0
1.1 2.6 4.1 2.1 1.4 2.9 3.2 5.3 4.9 5.0 6.4 6.3 6.2 4.8 3.0 2.4 2.4 2.0 1.0 1.1 1.4 4.8 3.3 1.3 0.8 1.0 0.9 1.0 1.0 1.2 0.9 1.1 1.4 0.8 0.3 0.2 0.3 0.2 0.1 0.1 0.2 0.7 1.6
1.2 0.8 0.9 0.2 1.4 1.8 3.9 4.0 5.0 4.0 4.7 5.0 5.6 5.5 4.7 1.6 2.2 2.0 1.3 1.1 1.1 4.7 1.3 1.1 1.1 0.9 1.0 0.6 0.4 0.7 0.8 1.3 2.0 3.5 2.3 1.0 0.3 0.2 0.4 0.5 0.1 0.1 0.2
1.8 0.9 0.1 1.0 1.6 1.0 1.0 1.2 2.6 2.7 4.0 3.6 4.9 5.5 4.2 3.3 3.3 3.2 2.5 2.1 1.9 2.2 0.9 2.4 0.7 0.6 0.5 0.7 0.4 0.2 0.5 1.0 2.8 3.4 3.1 2.0 1.7 2.4 3.5 3.0 5.3 3.7 7.6
0.7 0.5 1.0 1.2 1.1 1.2 1.0 3.1 3.8 3.1 5.8 8.0 7.6 6.9 8.1 7.9 5.9 4.1 4.6 5.6 5.5 3.4 3.2 2.8 2.4 2.1 2.0 1.2 2.2 1.5 1.0 3.0 5.0 5.1 7.1 7.8 6.2 5.7 5.1 4.7 6.8 8.8 12.9
2.8 1.3 3.0 2.3 1.2 1.2 1.0 1.0 0.1 0.5 1.2 2.1 2.8 5.7 4.5 4.4 3.2 3.0 3.4 3.6 3.5 2.9 7.6 9.1 7.4 9.0 4.4 4.0 2.6 5.1 5.0 4.5 5.0 7.4 8.9 9.5 11.4 10.7 10.1 8.4 8.9 11.0 11.7
5.7 5.0 3.3 1.8 1.7 1.7 1.2 1.5 2.5 0.9 0.4 0.6 0.7 1.6 2.2 2.2 2.2 2.9 3.0 3.2 3.1 2.5 7.2 6.5 8.4 10.7 11.5 10.1 6.7 6.6 7.4 5.0 6.7 9.3 11.3 10.7 11.6 11.3 11.4 10.6 9.5 10.5 9.5
3.1 2.5 4.2 3.6 3.4 2.9 2.9 2.1 1.7 2.0 2.3 1.6 0.2 0.9 1.0 1.6 2.5 2.6 3.0 2.2 3.2 3.0 6.0 7.2 8.2 10.0 12.7 13.1 13.3 11.6 7.9 7.2 7.6 7.1 9.2 8.9 11.9 15.2 13.1 11.5 10.1 11.8 11.2
6.3 6.4 5.9 4.5 4.0 3.4 3.0 3.4 3.4 3.1 1.9 1.4 1.5 0.4 0.5 0.8 1.7 0.9 1.2 3.5 5.0 5.5 6.4 8.6 8.2 10.2 13.7 15.1 14.8 14.6 14.9 10.2 9.6 11.7 8.9 9.3 8.8 14.5 10.9 7.4 10.1 8.8 11.8
5.2 5.4 5.7 4.6 4.7 3.9 3.0 3.5 3.2 2.7 2.1 1.7 2.0 3.9 4.8 3.9 3.6 3.8 3.7 4.0 5.3 6.6 6.5 9.5 10.4 10.3 12.8 15.8 16.7 17.6 17.7 12.9 11.8 7.4 7.8 9.4 10.0 13.1 14.7 10.4 9.1 12.3 8.6
7.2 7.1 5.4 6.2 5.2 4.4 2.9 3.4 3.4 3.5 4.1 3.6 3.5 4.2 5.1 8.6 7.3 6.7 6.4 4.9 6.7 7.9 8.1 8.7 9.7 11.3 11.6 14.2 16.1 18.0 18.8 16.1 12.1 12.0 11.4 11.1 10.9 14.4 8.4 9.7 9.6 8.6 9.7
8.9 7.8 8.1 7.2 5.8 5.1 4.5 4.4 4.7 5.3 5.4 5.3 4.4 4.2 2.6 5.5 6.3 7.2 5.4 4.7 5.0 6.1 7.2 9.7 9.8 10.6 15.0 18.0 19.3 19.6 17.1 17.3 15.8 16.1 14.9 10.1 12.3 10.1 9.4 11.0 9.5 10.1 10.5
11.3 10.2 9.8 10.6 9.3 7.1 6.6 5.6 6.9 8.1 8.0 6.7 5.9 6.2 6.6 7.5 6.7 5.8 4.9 3.9 4.3 4.0 4.3 6.9 9.8 10.6 8.8 12.3 15.8 21.8 25.7 19.4 20.4 23.1 26.4 19.9 16.2 15.9 16.0 17.4 12.4 14.0 10.8
13.0 12.9 12.0 11.7 11.7 10.9 11.2 12.0 11.3 9.8 9.8 8.6 8.5 7.4 7.6 7.5 7.0 5.6 4.4 4.4 4.5 4.4 4.1 6.7 10.7 14.2 13.8 13.6 14.6 15.6 19.7 20.5 26.9 31.1 32.1 35.0 22.3 16.0 15.1 17.3 12.0 9.3 8.4
12.8 13.4 13.6 15.0 15.6 14.1 13.3 12.2 11.0 10.5 10.6 9.5 9.2 7.7 6.5 5.8 5.1 4.7 4.8 5.1 5.5 6.1 6.3 6.9 9.7 12.9 13.7 15.3 15.4 16.5 17.4 16.7 21.9 25.2 30.6 31.4 26.6 16.6 16.5 14.9 10.4 9.2 8.9
12.4 12.0 13.7 12.3 12.2 12.4 12.2 11.5 10.7 10.2 10.4 10.1 9.5 7.9 7.3 6.9 6.5 6.0 5.6 5.5 6.0 5.5 5.8 5.6 6.7 8.4 9.2 10.7 12.0 13.0 10.8 11.4 14.4 14.6 23.6 33.8 30.5 26.1 18.8 20.1 16.4 15.0 12.6

GFSGL_prec_kuchsnow_324.txt.gz
Snowfall_Accumulation
5.0 4.7 3.7 2.1 2.4 1.1 3.4 0.5 0.3 0.1 0.0 0.1 0.0 0.0 0.0 0.0 0.0 0.0 0.0 0.0 0.0 0.0 0.0 0.0 0.0 0.0 0.0 0.0 0.0 0.0 0.2 1.0 1.2 0.0 0.0 0.2 0.2 0.3 0.1 0.0 0.0 0.0 0.0
3.9 5.8 5.3 3.7 2.7 3.1 1.7 3.0 0.6 0.4 0.0 0.0 0.0 0.0 0.0 0.0 0.0 0.0 0.0 0.0 0.0 0.0 0.0 0.0 0.0 0.0 0.0 0.0 0.2 0.2 0.2 0.0 1.9 0.3 0.1 0.9 1.6 1.0 0.4 0.1 0.0 0.0 0.0
0.4 3.0 5.7 5.4 4.3 3.9 3.3 1.8 4.2 3.4 0.5 0.7 0.1 0.1 0.1 0.0 0.0 0.0 0.0 0.0 0.0 0.0 0.0 0.0 0.0 0.0 0.0 0.0 0.7 0.5 1.1 0.5 1.1 1.3 0.6 0.9 0.5 0.2 0.1 0.1 0.0 0.0 0.0
0.1 0.2 1.7 5.3 5.5 4.0 3.3 2.9 3.1 5.8 2.0 1.4 0.2 0.2 0.1 0.0 0.0 0.0 0.0 0.0 0.0 0.0 0.0 0.0 0.0 0.0 0.9 0.9 1.3 0.9 0.4 0.8 0.9 0.6 0.4 0.9 0.8 0.2 0.2 0.2 0.1 0.0 0.0
0.0 0.0 0.2 0.4 2.8 4.2 3.3 3.2 2.8 2.6 6.0 3.8 2.5 1.1 0.1 0.3 0.2 0.3 0.4 0.3 0.1 0.1 1.0 0.7 1.6 1.7 1.1 1.3 1.3 0.8 0.4 0.5 1.5 3.5 2.2 1.4 0.5 0.2 0.3 0.0 0.2 0.0 0.2
0.0 0.0 0.0 0.0 0.3 1.7 2.7 3.5 2.8 3.0 2.6 5.6 4.2 4.3 3.5 1.0 0.3 0.7 0.9 3.0 3.3 3.8 3.1 1.4 1.5 0.9 0.6 0.4 0.6 0.7 2.0 5.0 5.7 4.9 4.3 1.1 0.1 0.1 0.0 0.1 2.0 2.3 2.6
0.0 0.0 0.0 0.0 0.1 0.1 0.9 2.0 3.7 4.5 3.5 3.2 5.3 4.7 4.7 1.4 0.4 0.7 1.4 2.3 5.5 4.2 3.1 2.1 1.0 0.2 0.4 0.4 0.2 0.2 0.8 0.7 1.7 4.7 5.0 1.6 1.4 0.5 2.5 4.0 1.2 2.2 2.8
0.0 0.0 0.0 0.4 0.3 0.0 0.3 0.9 2.1 4.0 6.1 4.4 3.7 4.7 8.5 3.6 0.6 1.0 2.2 3.7 4.2 2.2 1.6 0.3 0.6 0.3 0.0 0.3 0.5 1.5 0.6 0.1 0.0 0.0 0.1 0.5 0.7 0.6 0.3 1.4 1.6 1.6 0.6
0.1 0.3 0.3 0.9 1.7 1.4 2.1 2.5 3.9 3.4 4.9 6.6 5.4 5.6 8.6 6.1 1.5 1.3 1.5 2.3 1.5 0.7 0.3 0.1 0.1 0.3 0.1 0.3 2.4 3.5 1.2 0.1 0.0 0.0 0.2 0.1 0.0 0.0 0.2 2.9 6.7 7.5 4.4
0.8 0.7 0.7 1.1 2.6 3.0 2.0 3.5 4.1 4.5 6.7 6.1 6.9 5.0 4.9 5.4 2.3 1.2 1.8 3.8 3.1 0.9 0.2 0.1 0.0 0.4 0.4 0.6 1.9 3.3 3.2 0.4 0.6 0.5 0.0 0.0 0.0 0.1 0.1 0.7 4.4 14.5 7.9
1.1 0.9 1.3 1.2 2.6 2.7 3.4 4.2 4.2 3.3 4.8 6.3 5.5 4.2 4.7 4.3 3.3 1.4 1.5 3.9 4.2 2.9 1.5 0.8 0.3 0.4 0.7 0.6 0.7 3.4 3.2 0.3 1.6 1.9 0.6 0.0 0.0 0.1 0.1 0.1 0.7 7.1 14.0
1.1 2.6 4.1 2.1 1.4 2.9 3.3 5.3 4.9 5.0 6.4 6.3 6.2 4.8 3.0 2.4 2.4 2.0 1.0 1.1 1.4 4.9 3.3 1.3 0.8 1.0 0.9 1.0 1.0 1.2 0.9 1.2 1.7 1.3 0.6 0.3 0.3 0.2 0.1 0.1 0.2 0.7 1.6
1.2 0.8 0.9 0.2 1.4 1.8 3.9 4.0 5.0 4.0 4.7 5.0 5.6 5.5 4.7 1.6 2.2 2.0 1.3 1.1 1.2 4.8 1.3 1.1 1.2 1.0 1.0 0.7 0.5 0.8 1.0 1.6 2.4 4.0 2.6 1.1 0.3 0.2 0.4 0.5 0.1 0.1 0.2
1.8 0.9 0.1 1.0 1.6 1.0 1.0 1.2 2.6 2.7 4.0 3.6 4.9 5.5 4.2 3.3 3.3 3.2 2.5 2.1 1.9 2.2 0.9 2.4 0.7 0.6 0.6 0.8 0.4 0.3 0.5 1.0 2.9 3.4 3.1 2.0 1.7 2.4 3.5 3.0 5.3 3.7 7.6
0.7 0.5 1.0 1.2 1.1 1.2 1.0 3.1 3.8 3.1 5.8 8.0 7.6 6.9 8.1 7.9 5.9 4.1 4.6 5.6 5.5 3.4 3.2 2.8 2.4 2.1 2.0 1.2 2.2 1.5 1.0 3.0 5.0 5.1 7.1 7.8 6.2 5.7 5.1 4.7 6.8 8.8 12.9
2.8 1.3 3.0 2.3 1.2 1.2 1.0 1.0 0.1 0.5 1.2 2.2 3.1 6.3 4.7 4.7 3.4 3.3 3.7 3.9 3.8 3.4 8.7 11.1 8.4 9.0 4.5 4.0 2.6 5.1 5.0 4.5 5.0 7.4 8.9 9.5 11.4 10.7 10.1 8.4 8.9 11.0 11.7
5.7 5.0 3.3 1.8 1.7 1.7 1.2 1.5 2.5 0.9 0.4 0.6 0.7 1.6 2.2 2.2 2.3 3.1 3.2 3.4 3.4 2.8 8.0 6.9 8.4 10.9 11.7 10.1 6.7 6.6 7.4 5.0 6.7 9.3 11.3 10.7 11.6 11.3 11.4 10.6 9.5 10.5 9.5
3.1 2.5 4.2 3.6 3.4 2.9 2.9 2.1 1.7 2.0 2.3 1.6 0.2 0.9 1.0 1.7 2.5 2.7 3.3 2.8 3.8 3.2 6.0 7.2 8.5 10.0 12.9 13.3 13.4 11.6 8.0 7.2 7.6 7.1 9.2 8.9 11.9 15.3 13.1 11.5 10.1 11.9 11.2
6.3 6.4 5.9 4.5 4.0 3.4 3.0 3.4 3.4 3.1 1.9 1.4 1.5 0.4 0.5 0.8 1.7 0.9 1.2 3.5 5.0 5.5 6.4 8.6 8.3 10.3 14.0 15.1 15.0 14.7 14.9 10.2 9.6 11.7 8.9 9.3 8.8 14.5 10.9 7.4 10.1 8.8 12.1
5.2 5.4 5.7 4.6 4.7 3.9 3.0 3.5 3.2 2.7 2.1 1.7 2.0 3.9 4.8 3.9 3.6 3.8 3.7 4.0 5.3 6.6 6.6 9.6 10.4 10.3 12.9 15.8 16.7 17.6 17.7 12.9 11.8 7.4 7.8 9.4 10.0 13.2 14.9 10.4 9.2 12.5 8.6
7.2 7.1 5.5 6.6 5.4 4.4 2.9 3.4 3.4 3.5 4.1 3.6 3.5 4.2 5.1 8.8 8.1 6.8 6.4 4.9 6.7 7.9 8.1 8.7 9.7 11.3 11.6 14.2 16.1 18.0 18.8 16.1 12.1 12.0 11.4 11.1 11.0 14.6 8.4 9.8 9.7 8.6 9.9
8.9 7.8 8.1 7.2 5.8 5.1 4.5 4.4 4.7 5.3 5.4 5.3 4.4 4.2 2.7 5.5 6.3 7.2 5.4 4.7 5.0 6.1 7.2 9.7 9.8 10.6 15.0 18.0 19.3 19.6 17.1 17.3 15.8 16.1 15.1 10.2 12.4 10.3 9.6 11.3 9.7 10.2 10.7
11.3 10.2 9.8 10.6 9.3 7.1 6.6 5.6 6.9 8.1 8.0 6.7 5.9 6.2 6.6 7.5 6.7 5.8 4.9 3.9 4.3 4.0 4.3 6.9 9.8 10.6 8.8 12.3 15.8 21.8 25.8 19.4 20.4 23.4 26.7 20.1 16.5 15.9 16.2 17.8 12.5 14.1 11.0
13.0 12.9 12.0 11.7 11.7 10.9 11.4 12.1 11.3 9.8 9.8 8.6 8.5 7.4 7.6 7.5 7.0 5.6 4.4 4.4 4.5 4.4 4.1 6.8 10.7 14.2 13.9 13.6 14.6 15.6 19.8 20.6 27.2 31.5 32.6 35.7 22.7 16.0 15.3 17.7 12.2 9.4 8.5
12.8 13.4 13.6 15.0 15.6 14.1 13.3 12.2 11.0 10.5 10.6 9.5 9.2 7.7 6.5 5.8 5.1 4.7 4.8 5.1 5.5 6.1 6.3 7.0 9.8 13.1 13.9 15.5 15.6 16.7 17.7 17.1 22.7 26.0 31.4 31.6 26.8 16.6 16.6 14.9 10.4 9.2 8.9
12.4 12.1 13.7 12.4 12.3 12.4 12.2 11.5 10.7 10.2 10.4 10.1 9.5 7.9 7.3 6.9 6.5 6.0 5.6 5.5 6.1 5.5 5.9 5.8 6.8 8.6 9.4 10.9 12.2 13.5 11.3 11.8 14.9 15.0 24.6 35.7 32.0 27.2 18.8 20.4 16.4 15.2 12.8

GFSGL_prec_kuchsnow_327.txt.gz
Snowfall_Accumulation
5.0 4.7 3.7 2.1 2.4 1.1 3.4 0.5 0.3 0.1 0.0 0.1 0.0 0.0 0.0 0.0 0.0 0.0 0.0 0.0 0.0 0.0 0.0 0.0 0.0 0.0 0.0 0.0 0.0 0.0 0.2 1.0 1.2 0.0 0.0 0.2 0.2 0.3 0.1 0.0 0.0 0.0 0.0
3.9 5.8 5.3 3.7 2.7 3.1 1.7 3.0 0.6 0.4 0.0 0.0 0.0 0.0 0.0 0.0 0.0 0.0 0.0 0.0 0.0 0.0 0.0 0.0 0.0 0.0 0.0 0.0 0.2 0.2 0.2 0.0 1.9 0.3 0.1 0.9 1.6 1.0 0.4 0.1 0.0 0.0 0.0
0.4 3.0 5.7 5.4 4.3 3.9 3.3 1.8 4.2 3.4 0.5 0.7 0.1 0.1 0.1 0.0 0.0 0.0 0.0 0.0 0.0 0.0 0.0 0.0 0.0 0.0 0.0 0.0 0.7 0.5 1.1 0.5 1.1 1.3 0.6 0.9 0.5 0.2 0.1 0.1 0.0 0.0 0.0
0.1 0.2 1.7 5.3 5.5 4.0 3.3 2.9 3.1 5.8 2.0 1.4 0.2 0.2 0.1 0.0 0.0 0.0 0.0 0.0 0.0 0.0 0.0 0.0 0.0 0.0 0.9 0.9 1.3 0.9 0.4 0.8 0.9 0.6 0.4 0.9 0.8 0.2 0.2 0.2 0.1 0.0 0.0
0.0 0.0 0.2 0.4 2.8 4.2 3.3 3.2 2.8 2.6 6.0 3.8 2.5 1.1 0.1 0.3 0.2 0.3 0.4 0.3 0.1 0.1 1.0 0.7 1.6 1.7 1.1 1.3 1.3 0.8 0.4 0.5 1.5 3.5 2.2 1.4 0.5 0.2 0.3 0.0 0.2 0.0 0.2
0.0 0.0 0.0 0.0 0.3 1.7 2.7 3.5 2.8 3.0 2.6 5.6 4.2 4.3 3.5 1.0 0.3 0.7 0.9 3.0 3.3 3.8 3.1 1.4 1.5 0.9 0.6 0.4 0.6 0.7 2.0 5.0 5.7 4.9 4.3 1.1 0.1 0.1 0.0 0.1 2.0 2.3 2.6
0.0 0.0 0.0 0.0 0.1 0.1 0.9 2.0 3.7 4.5 3.5 3.2 5.3 4.7 4.7 1.4 0.4 0.7 1.4 2.3 5.5 4.2 3.1 2.1 1.0 0.2 0.4 0.4 0.2 0.2 0.8 0.7 1.8 4.9 5.3 1.6 1.4 0.5 2.5 4.0 1.2 2.2 2.8
0.0 0.0 0.0 0.4 0.3 0.0 0.3 0.9 2.1 4.0 6.1 4.4 3.7 4.7 8.5 3.6 0.6 1.0 2.2 3.7 4.2 2.2 1.6 0.3 0.6 0.3 0.0 0.3 0.5 1.5 0.6 0.1 0.0 0.0 0.1 0.5 0.7 0.6 0.3 1.4 1.6 1.6 0.6
0.1 0.3 0.3 0.9 1.7 1.4 2.1 2.5 3.9 3.4 4.9 6.6 5.4 5.6 8.6 6.1 1.5 1.3 1.5 2.3 1.5 0.7 0.3 0.1 0.1 0.3 0.1 0.3 2.4 3.5 1.2 0.1 0.0 0.0 0.2 0.1 0.0 0.0 0.2 2.9 6.7 7.9 4.7
0.8 0.7 0.7 1.1 2.6 3.0 2.0 3.5 4.1 4.5 6.7 6.1 6.9 5.0 4.9 5.4 2.3 1.2 1.8 3.8 3.1 0.9 0.2 0.1 0.0 0.4 0.4 0.6 1.9 3.3 3.2 0.4 0.6 0.5 0.0 0.0 0.0 0.1 0.1 0.7 4.4 14.5 7.9
1.1 0.9 1.3 1.2 2.6 2.7 3.4 4.2 4.2 3.3 4.8 6.3 5.5 4.2 4.7 4.3 3.3 1.4 1.5 3.9 4.2 2.9 1.5 0.8 0.3 0.4 0.7 0.6 0.7 3.4 3.2 0.3 1.6 1.9 0.6 0.0 0.0 0.1 0.1 0.1 0.7 7.1 14.0
1.1 2.6 4.1 2.1 1.4 2.9 3.3 5.3 4.9 5.0 6.4 6.3 6.2 4.8 3.0 2.4 2.4 2.0 1.0 1.1 1.4 4.9 3.3 1.3 0.8 1.0 0.9 1.0 1.0 1.2 0.9 1.2 1.9 1.8 0.9 0.5 0.3 0.2 0.1 0.1 0.2 0.7 1.6
1.2 0.8 0.9 0.2 1.4 1.8 3.9 4.0 5.0 4.0 4.7 5.0 5.6 5.5 4.7 1.6 2.2 2.0 1.3 1.1 1.2 4.8 1.3 1.1 1.3 1.1 1.2 0.8 0.5 0.8 1.0 1.7 2.4 4.3 2.6 1.1 0.3 0.2 0.4 0.5 0.1 0.1 0.2
1.8 0.9 0.1 1.0 1.6 1.0 1.0 1.2 2.6 2.7 4.0 3.6 4.9 5.5 4.2 3.3 3.3 3.2 2.5 2.1 1.9 2.2 0.9 2.4 0.7 0.6 0.6 0.9 0.5 0.4 0.6 1.1 3.1 3.7 3.3 2.0 1.7 2.4 3.5 3.0 5.3 3.7 7.6
0.7 0.5 1.0 1.2 1.1 1.2 1.0 3.1 3.8 3.1 5.8 8.0 7.6 6.9 8.1 7.9 5.9 4.1 4.6 5.6 5.5 3.4 3.2 2.8 2.4 2.1 2.0 1.2 2.2 1.5 1.0 3.0 5.0 5.1 7.1 7.8 6.2 5.7 5.1 4.7 6.8 8.8 12.9
2.8 1.3 3.0 2.3 1.2 1.2 1.0 1.0 0.1 0.5 1.2 2.2 3.2 6.7 4.9 4.8 3.5 3.4 3.9 4.2 4.1 3.7 9.3 12.1 9.0 9.0 4.5 4.0 2.6 5.1 5.0 4.5 5.0 7.4 8.9 9.5 11.4 10.7 10.1 8.4 8.9 11.0 11.7
5.7 5.0 3.3 1.8 1.7 1.7 1.2 1.5 2.5 0.9 0.4 0.6 0.7 1.6 2.2 2.2 2.3 3.1 3.2 3.5 3.6 3.2 8.0 6.9 8.4 11.1 11.8 10.2 6.8 6.6 7.4 5.0 6.7 9.3 11.3 10.7 11.6 11.3 11.4 10.6 9.5 10.5 9.5
3.1 2.5 4.2 3.6 3.4 2.9 2.9 2.1 1.7 2.0 2.3 1.6 0.2 0.9 1.0 1.7 2.5 2.7 3.3 2.9 4.2 3.2 6.0 7.2 8.5 10.0 12.9 13.3 13.4 11.6 8.0 7.2 7.6 7.2 9.2 8.9 11.9 15.3 13.1 11.5 10.1 11.9 11.2
6.3 6.4 5.9 4.5 4.0 3.4 3.0 3.4 3.4 3.1 1.9 1.4 1.5 0.4 0.5 0.8 1.7 0.9 1.2 3.5 5.0 5.5 6.4 8.6 8.3 10.3 14.0 15.1 15.1 14.9 15.1 10.3 9.7 11.9 9.0 9.3 8.8 14.5 10.9 7.4 10.1 8.8 12.1
5.2 5.4 5.7 4.6 4.7 3.9 3.0 3.5 3.2 2.7 2.1 1.7 2.0 3.9 4.8 3.9 3.6 3.8 3.7 4.0 5.3 6.6 6.6 9.6 10.4 10.3 12.9 15.8 16.7 17.6 17.7 12.9 11.8 7.4 7.8 9.4 10.0 13.2 14.9 10.4 9.2 12.5 8.6
7.2 7.1 5.5 6.6 5.4 4.4 2.9 3.4 3.4 3.5 4.1 3.6 3.5 4.2 5.1 8.9 8.4 6.8 6.4 4.9 6.7 7.9 8.1 8.7 9.7 11.3 11.6 14.2 16.1 18.0 18.8 16.1 12.1 12.0 11.4 11.1 11.0 14.6 8.4 9.8 9.7 8.6 10.0
8.9 7.8 8.1 7.2 5.8 5.1 4.5 4.4 4.7 5.3 5.4 5.3 4.4 4.2 2.7 5.5 6.3 7.2 5.4 4.7 5.0 6.1 7.2 9.7 9.8 10.6 15.0 18.0 19.3 19.6 17.1 17.3 15.8 16.1 15.1 10.2 12.4 10.3 9.6 11.3 9.7 10.2 10.8
11.3 10.2 9.8 10.6 9.3 7.1 6.6 5.6 6.9 8.1 8.0 6.7 5.9 6.2 6.6 7.5 6.7 5.8 4.9 3.9 4.3 4.0 4.3 6.9 9.8 10.6 8.8 12.3 15.8 21.9 25.9 19.4 20.4 23.4 26.7 20.1 16.5 15.9 16.2 17.9 12.6 14.2 11.0
13.0 12.9 12.0 11.7 11.7 10.9 11.4 12.1 11.3 9.8 9.8 8.6 8.5 7.4 7.6 7.5 7.0 5.6 4.4 4.4 4.5 4.4 4.1 6.8 10.7 14.2 13.9 13.7 14.6 15.6 19.9 20.6 27.2 31.5 32.6 36.0 22.8 16.0 15.4 17.9 12.3 9.4 8.6
12.8 13.4 13.6 15.0 15.6 14.1 13.3 12.2 11.0 10.5 10.6 9.5 9.2 7.7 6.5 5.8 5.1 4.7 4.8 5.1 5.5 6.1 6.3 7.0 9.8 13.1 14.0 15.6 15.7 16.7 17.8 17.2 23.0 26.3 31.7 31.8 26.9 16.6 16.7 15.0 10.4 9.3 8.9
12.4 12.1 13.7 12.4 12.3 12.4 12.2 11.5 10.7 10.2 10.4 10.1 9.5 7.9 7.3 6.9 6.5 6.0 5.6 5.5 6.1 5.5 5.9 5.8 6.9 8.6 9.5 11.0 12.2 13.7 11.5 12.1 15.2 15.3 25.3 36.5 32.5 27.2 18.8 20.5 16.4 15.2 12.8

GFSGL_prec_kuchsnow_333.txt.gz
Snowfall_Accumulation
5.0 4.7 3.7 2.1 2.4 1.1 3.4 0.5 0.3 0.1 0.0 0.1 0.0 0.0 0.0 0.0 0.0 0.0 0.0 0.0 0.0 0.0 0.0 0.0 0.0 0.0 0.0 0.0 0.0 0.0 0.2 1.0 1.2 0.0 0.0 0.2 0.2 0.3 0.1 0.0 0.0 0.0 0.0
3.9 5.8 5.3 3.7 2.7 3.1 1.7 3.0 0.6 0.4 0.0 0.0 0.0 0.0 0.0 0.0 0.0 0.0 0.0 0.0 0.0 0.0 0.0 0.0 0.0 0.0 0.0 0.0 0.2 0.2 0.2 0.0 1.9 0.3 0.1 0.9 1.6 1.0 0.4 0.1 0.0 0.0 0.0
0.4 3.0 5.7 5.4 4.3 3.9 3.3 1.8 4.2 3.4 0.5 0.7 0.1 0.1 0.1 0.0 0.0 0.0 0.0 0.0 0.0 0.0 0.0 0.0 0.0 0.0 0.0 0.0 0.7 0.5 1.1 0.5 1.1 1.3 0.6 0.9 0.5 0.2 0.1 0.1 0.0 0.0 0.0
0.1 0.2 1.7 5.3 5.5 4.0 3.3 2.9 3.1 5.8 2.0 1.4 0.2 0.2 0.1 0.0 0.0 0.0 0.0 0.0 0.0 0.0 0.0 0.0 0.0 0.0 0.9 0.9 1.3 0.9 0.4 0.8 0.9 0.6 0.4 0.9 0.8 0.2 0.2 0.2 0.1 0.0 0.0
0.0 0.0 0.2 0.4 2.8 4.2 3.3 3.2 2.8 2.6 6.0 3.8 2.5 1.1 0.1 0.3 0.2 0.3 0.4 0.3 0.1 0.1 1.0 0.7 1.6 1.7 1.1 1.3 1.3 0.8 0.4 0.5 1.5 3.5 2.2 1.4 0.5 0.2 0.3 0.0 0.2 0.0 0.2
0.0 0.0 0.0 0.0 0.3 1.7 2.7 3.5 2.8 3.0 2.6 5.6 4.2 4.3 3.5 1.0 0.3 0.7 0.9 3.0 3.3 3.8 3.1 1.4 1.5 0.9 0.6 0.4 0.6 0.7 2.0 5.0 5.7 4.9 4.3 1.1 0.1 0.1 0.0 0.1 2.0 2.3 2.6
0.0 0.0 0.0 0.0 0.1 0.1 0.9 2.0 3.7 4.5 3.5 3.2 5.3 4.7 4.7 1.4 0.4 0.7 1.4 2.3 5.5 4.2 3.1 2.1 1.0 0.2 0.4 0.4 0.2 0.2 0.8 0.7 1.8 4.9 5.3 1.6 1.4 0.5 2.5 4.0 1.2 2.2 2.8
0.0 0.0 0.0 0.4 0.3 0.0 0.3 0.9 2.1 4.0 6.1 4.4 3.7 4.7 8.5 3.6 0.6 1.0 2.2 3.7 4.2 2.2 1.6 0.3 0.6 0.3 0.0 0.3 0.5 1.5 0.6 0.1 0.0 0.0 0.1 0.5 0.7 0.6 0.3 1.4 1.6 1.6 0.6
0.1 0.3 0.3 0.9 1.7 1.4 2.1 2.5 3.9 3.4 4.9 6.6 5.4 5.6 8.6 6.1 1.5 1.3 1.5 2.3 1.5 0.7 0.3 0.1 0.1 0.3 0.1 0.3 2.4 3.5 1.2 0.1 0.0 0.0 0.2 0.1 0.0 0.0 0.2 2.9 6.7 8.3 4.9
0.8 0.7 0.7 1.1 2.6 3.0 2.0 3.5 4.1 4.5 6.7 6.1 6.9 5.0 4.9 5.4 2.3 1.2 1.8 3.8 3.1 0.9 0.2 0.1 0.0 0.4 0.4 0.6 1.9 3.3 3.2 0.4 0.6 0.5 0.0 0.0 0.0 0.1 0.1 0.8 4.5 14.7 8.0
1.1 0.9 1.3 1.2 2.6 2.7 3.4 4.2 4.2 3.3 4.8 6.3 5.5 4.2 4.7 4.3 3.3 1.4 1.5 3.9 4.2 2.9 1.5 0.8 0.3 0.4 0.7 0.6 0.7 3.4 3.2 0.3 1.6 1.9 0.6 0.0 0.0 0.1 0.1 0.1 0.7 7.1 14.0
1.1 2.6 4.1 2.1 1.4 2.9 3.3 5.3 4.9 5.1 6.4 6.3 6.2 4.8 3.0 2.4 2.4 2.0 1.0 1.1 1.4 4.9 3.3 1.3 0.8 1.0 1.0 1.0 1.1 1.2 1.0 1.2 1.9 1.8 0.9 0.5 0.3 0.2 0.1 0.1 0.2 0.7 1.6
1.2 0.8 0.9 0.2 1.4 1.8 3.9 4.0 5.1 4.0 4.7 5.0 5.6 5.5 4.7 1.6 2.2 2.0 1.3 1.1 1.2 4.8 1.3 1.1 1.3 1.1 1.2 1.0 0.5 0.8 1.1 1.8 2.5 4.4 2.7 1.1 0.3 0.2 0.4 0.5 0.1 0.1 0.2
1.8 0.9 0.1 1.0 1.6 1.0 1.0 1.2 2.6 2.7 4.0 3.6 4.9 5.5 4.2 3.3 3.3 3.2 2.5 2.1 1.9 2.2 0.9 2.4 0.7 0.6 0.6 0.9 0.5 0.4 0.6 1.1 3.3 4.0 3.3 2.0 1.8 2.5 3.5 3.0 5.3 3.7 7.6
0.7 0.5 1.0 1.2 1.1 1.2 1.0 3.1 3.8 3.1 5.8 8.0 7.6 6.9 8.1 7.9 5.9 4.1 4.6 5.6 5.5 3.4 3.3 2.8 2.4 2.1 2.0 1.2 2.2 1.5 1.0 3.0 5.0 5.1 7.1 7.8 6.2 5.7 5.1 4.7 6.8 8.8 12.9
2.8 1.3 3.0 2.3 1.2 1.2 1.0 1.0 0.1 0.5 1.2 2.2 3.2 6.7 5.1 4.9 3.5 3.4 3.9 4.3 4.3 3.9 10.0 13.0 9.0 9.2 4.5 4.1 2.6 5.1 5.0 4.5 5.0 7.4 8.9 9.5 11.4 10.7 10.1 8.4 8.9 11.1 11.7
5.7 5.0 3.3 1.8 1.7 1.7 1.2 1.5 2.5 0.9 0.4 0.6 0.7 1.6 2.2 2.3 2.4 3.1 3.2 3.5 3.7 3.9 8.3 6.9 8.4 11.1 11.8 10.2 6.8 6.6 7.5 5.0 6.7 9.3 11.3 10.8 11.6 11.4 11.5 10.7 9.5 10.5 9.6
3.1 2.5 4.2 3.6 3.4 2.9 2.9 2.1 1.7 2.0 2.3 1.6 0.2 0.9 1.0 1.7 2.5 2.7 3.3 3.0 4.3 3.2 6.0 7.2 8.5 10.0 12.9 13.3 13.4 11.6 8.0 7.2 7.6 7.2 9.2 8.9 12.0 15.4 13.4 11.8 10.3 12.1 11.4
6.3 6.4 5.9 4.5 4.0 3.4 3.0 3.4 3.4 3.1 1.9 1.4 1.5 0.4 0.5 0.8 1.7 0.9 1.2 3.5 5.0 5.5 6.4 8.6 8.3 10.3 14.0 15.1 15.1 14.9 15.1 10.4 9.7 12.2 9.3 9.8 9.3 15.2 11.5 7.8 10.4 9.1 12.4
5.2 5.4 5.7 4.6 4.7 3.9 3.0 3.5 3.2 2.7 2.1 1.7 2.0 3.9 4.8 3.9 3.6 3.8 3.7 4.0 5.3 6.6 6.6 9.6 10.4 10.3 12.9 15.8 16.7 17.6 17.7 12.9 11.8 7.6 7.9 9.5 10.4 13.8 15.4 10.8 9.5 12.7 8.8
7.2 7.1 5.5 6.6 5.4 4.4 2.9 3.4 3.4 3.5 4.1 3.6 3.5 4.2 5.1 8.9 8.6 6.9 6.4 4.9 6.7 7.9 8.1 8.7 9.7 11.3 11.6 14.2 16.1 18.0 18.8 16.1 12.1 12.0 11.4 11.1 11.0 14.8 8.4 9.8 9.8 8.7 10.0
8.9 7.8 8.1 7.2 5.8 5.1 4.5 4.4 4.7 5.3 5.4 5.3 4.4 4.2 2.7 5.6 6.3 7.2 5.4 4.7 5.0 6.1 7.2 9.7 9.8 10.6 15.0 18.0 19.3 19.6 17.1 17.3 15.8 16.1 15.1 10.2 12.4 10.3 9.6 11.3 9.7 10.2 10.8
11.3 10.2 9.8 10.6 9.3 7.1 6.6 5.6 6.9 8.1 8.0 6.7 5.9 6.2 6.6 7.5 6.7 5.8 4.9 3.9 4.3 4.0 4.3 6.9 9.8 10.6 8.8 12.3 15.8 22.0 26.1 19.4 20.4 23.4 27.0 20.2 16.6 16.1 16.3 18.1 12.6 14.4 11.3
13.0 12.9 12.0 11.7 11.7 10.9 11.4 12.1 11.3 9.8 9.8 8.6 8.5 7.4 7.6 7.5 7.0 5.6 4.4 4.4 4.5 4.4 4.1 6.8 10.7 14.2 13.9 13.7 14.6 15.7 20.0 20.6 27.5 32.0 33.1 36.7 23.1 16.3 16.1 18.5 12.6 9.8 9.0
12.8 13.4 13.6 15.0 15.6 14.1 13.3 12.2 11.0 10.5 10.6 9.5 9.2 7.7 6.5 5.8 5.1 4.7 4.8 5.1 5.5 6.1 6.3 7.0 9.8 13.1 14.0 15.6 15.7 16.7 18.0 17.5 23.7 27.1 32.7 32.5 27.4 16.9 17.3 15.8 10.9 9.7 9.4
12.4 12.1 13.7 12.4 12.3 12.4 12.2 11.5 10.7 10.2 10.4 10.1 9.5 7.9 7.3 6.9 6.5 6.0 5.6 5.5 6.1 5.5 5.9 5.8 6.9 8.7 9.6 11.0 12.2 13.8 11.8 12.4 15.9 16.1 26.8 37.8 32.9 27.4 19.2 21.0 16.5 15.5 13.1